+ View the NASA Portal
+ Center for Near-Earth Object Studies
IMPORTANT:
The SSD Announcement email list is now available. Major changes are coming in the near future, including possible hostname and/or URL changes. To be notified of such changes, subscribe to this email list.
Please visit
this page
for more details.
Don't show this message again
JPL Small-Body Database Browser
Search:
[
help
]
277078 (2005 EV153)
Classification:
Main-belt Asteroid
SPK-ID:
2277078
[
Ephemeris
|
Orbit Diagram
|
Orbital Elements
|
Mission Design
|
Physical Parameters
|
Discovery Circumstances
|
Close-Approach Data
]
[ show orbit diagram ]
Orbital Elements at Epoch 2458600.5 (2019-Apr-27.0) TDB
Reference:
JPL 17
(heliocentric ecliptic J2000)
Element
Value
Uncertainty (1-sigma)
Units
e
.1511061072212549
8.9716e-08
a
3.162001693372857
7.1491e-08
au
q
2.684203926460269
2.9266e-07
au
i
28.72708935723236
8.7914e-06
deg
node
58.54273571676764
1.6368e-05
deg
peri
209.374055836326
3.7801e-05
deg
M
116.2562683572126
4.469e-05
deg
t
p
2457937.283301989538
(2017-Jul-02.78330199)
0.00024097
TDB
period
2053.72161568227
5.62
6.9651e-05
1.907e-07
d
yr
n
.1752915279515154
5.9449e-09
deg/d
Q
3.639799460285446
8.2294e-08
au
Orbit Determination Parameters
# obs. used (total)
274
data-arc span
5821 days (15.94 yr)
first obs. used
2002-12-09
last obs. used
2018-11-16
planetary ephem.
DE431
SB-pert. ephem.
SB431-N16
condition code
0
norm. resid. RMS
.58793
source
ORB
producer
Otto Matic
solution date
2019-Jul-14 02:51:53
Additional Information
Earth MOID
= 1.69342 au
Jupiter MOID
= 1.46632 au
T_jup
= 2.997
[ show covariance matrix ]
[
Ephemeris
|
Orbit Diagram
|
Orbital Elements
|
Mission Design
|
Physical Parameters
|
Discovery Circumstances
|
Close-Approach Data
]
Physical Parameter Table
Parameter
Symbol
Value
Units
Sigma
Reference
Notes
absolute magnitude
H
14.9
n/a
MPO455056
diameter
diameter
6.252
km
0.377
urn:nasa:pds:neowise_diameters_albedos::2.0[mainbelt] (http://adsabs.harvard.edu/abs/2011ApJ...741...68M)
geometric albedo
albedo
0.065
0.017
urn:nasa:pds:neowise_diameters_albedos::2.0[mainbelt] (http://adsabs.harvard.edu/abs/2011ApJ...741...68M)
277078 (2005 EV153)
Discovered 2005-Mar-09 by CSS at Catalina
Reference:
20110517/Numbers.arc
Last Updated:
2011-05-20
[ show close-approach data ]
[
Ephemeris
|
Orbit Diagram
|
Orbital Elements
|
Mission Design
|
Physical Parameters
|
Discovery Circumstances
|
Close-Approach Data
]
2019-Dec-12 19:55 UT
(server date/time)
Site Manager:
Ryan S. Park
Webmaster
:
Alan B. Chamberlin